Location: Tamazert
(32.6352°N, 5.2072°W)
Time: 00:17:39
(UTC+00:00)

Daily predictions for brighter satellites

Satellite Brightness Start Highest point End
(mag) Time Altitude Azimuth Time Altitude Azimuth Time Altitude Azimuth
SL-16 R/B 4.0 00:09:27 25° NW 00:09:27 25° NW 00:13:11 10° N
ADEOS Rocket 4.1 00:27:49 35° NNW 00:27:49 35° NNW 00:30:57 10° NNW
USA 267 3.8 00:27:55 55° N 00:27:55 55° N 00:33:05 10° NW
Cosmos 2360 Rocket 3.9 00:42:06 26° NNW 00:42:06 26° NNW 00:45:25 10° N
CZ-2D R/B 4.5 00:45:51 10° NE 00:47:26 15° ENE 00:47:26 15° ENE
ATLAS 5 CENTAUR R/B 4.4 00:53:07 10° NNW 01:00:36 26° NNE 01:01:27 25° NE
ATLAS 3B R/B 3.9 00:59:06 10° NW 01:03:36 36° WNW 01:03:36 36° WNW
Cosmos 2333 Rocket 3.8 01:08:55 28° NNW 01:08:55 28° NNW 01:12:21 10° N
Resurs 1-4 Rocket 3.4 01:27:08 10° NNE 01:30:33 36° NE 01:30:33 36° NE
Cosmos 1709 Rocket 4.3 01:39:08 10° N 01:44:35 60° NE 01:44:35 60° NE
Cosmos 2219 Rocket 4.1 01:48:24 20° NW 01:48:24 20° NW 01:51:36 10° NNW
CZ-4C R/B 3.4 01:42:06 10° NNW 01:49:45 63° ENE 01:55:17 24° SE
ATLAS CENTAUR R/B 4.1 01:50:16 10° NNW 01:51:10 15° NNW 01:51:10 15° NNW
ADEOS II 3.1 01:51:31 10° NNE 01:55:43 39° ENE 01:55:43 39° ENE
COSMOS 2428 4.4 02:01:36 23° NW 02:01:36 23° NW 02:05:18 10° N
IDEFIX/ARIANE 42P 3.6 01:59:36 10° NNE 02:04:10 39° E 02:04:10 39° E
Cosmos 2237 Rocket 2.7 02:10:04 51° NNW 02:10:04 51° NNW 02:14:45 10° NNE
FALCON 9 R/B 4.2 01:41:18 10° W 02:17:06 87° SSW 02:25:03 10° ESE
Meteor 2-10 Rocket 3.8 02:14:08 10° N 02:19:11 72° N 02:19:11 72° N
USA 229 DEB 4.2 02:14:14 10° NNW 02:21:47 67° ENE 02:29:41 10° SE
USA 229 4.2 02:14:21 10° NNW 02:21:53 67° ENE 02:29:45 10° SE
MOS 1 Rocket 4.0 02:25:14 46° NE 02:25:14 46° NE 02:28:38 10° N
CZ-2D R/B 2.8 02:24:25 10° N 02:28:45 43° NW 02:28:45 43° NW
Cosmos 1536 Rocket 4.5 02:36:14 43° E 02:36:14 43° E 02:40:22 10° NNE
Cosmos 1455 Rocket 4.0 02:32:21 10° N 02:35:20 41° NNW 02:35:20 41° NNW
IRS-1D 4.1 02:35:01 10° NNE 02:40:13 52° E 02:41:06 47° SE
SL-16 R/B 2.4 02:40:08 69° SW 02:40:38 73° WSW 02:46:51 10° NNW
Cosmos 1066 4.5 02:42:12 83° SW 02:42:21 85° W 02:47:54 10° N
Lacrosse 5 1.8 02:44:52 83° NNW 02:44:52 83° NNW 02:49:52 10° NE
Cosmos 2278 Rocket 2.3 02:40:18 10° NNW 02:45:12 57° WNW 02:45:12 57° WNW
NOSS 3-1 (A) 4.1 02:40:35 10° NW 02:48:37 69° WSW 02:56:56 13° SSE
Cosmos 1943 Rocket 3.6 02:48:03 10° N 02:53:15 36° ENE 02:58:24 10° SE
SL-16 R/B 2.0 02:52:56 69° SW 02:53:34 79° WNW 02:59:15 10° NNE
Meteor 1-24 Rocket 3.9 02:54:36 51° W 02:54:46 51° W 03:00:13 10° N
ATLAS 2A CENTAUR R/B 4.3 02:51:25 34° SSW 02:56:01 42° S 03:03:20 10° ESE
Cosmos 2084 Rocket 4.4 02:57:43 34° NNW 02:57:43 34° NNW 03:00:27 10° NNE
Meteor 2-5 Rocket 4.4 02:59:30 39° W 02:59:37 40° WNW 03:05:00 10° N
Meteor 1-28 Rocket 4.5 03:11:43 30° NW 03:11:43 30° NW 03:13:52 10° NNW
Resurs 1-4 Rocket 3.9 03:08:17 10° NNW 03:11:35 17° WNW 03:11:38 17° WNW
Cosmos 1269 Rocket 3.9 03:07:52 10° NNW 03:13:09 90° W 03:16:07 27° SSE
Cosmos 2074 Rocket 4.1 03:14:20 10° NNW 03:20:29 58° W 03:22:55 36° SSW
Cosmos 1544 Rocket 4.0 03:18:18 10° NNW 03:22:11 42° W 03:22:11 42° W
Lacrosse 5 rocket 1.4 03:25:57 50° WNW 03:26:16 52° NW 03:30:11 10° NNE
ALOS 3.1 03:24:57 10° NNE 03:29:25 46° E 03:32:45 17° SSE
Cosmos 1271 Rocket 2.8 03:26:34 10° N 03:30:23 72° E 03:32:20 27° SSE
Cosmos 2184 Rocket 4.2 03:24:44 10° NNW 03:30:42 49° W 03:33:09 32° SW
COSMOS 2455 2.9 03:31:45 35° SW 03:34:20 67° WNW 03:40:21 10° NNE
ADEOS II 3.6 03:32:04 10° NNW 03:35:47 20° WNW 03:36:39 19° W
Cosmos 1295 Rocket 4.5 03:31:27 10° NNW 03:37:43 68° W 03:42:41 17° S
Cosmos 1610 Rocket 4.4 03:32:02 10° NNW 03:38:09 68° W 03:42:52 17° S
CZ-4C R/B 3.9 03:31:33 10° NW 03:38:10 29° WSW 03:40:12 26° SW
Cosmos 2181 Rocket 4.5 03:35:34 10° S 03:41:44 61° E 03:47:51 10° NNE
Cosmos 1455 3.4 03:40:16 10° NNW 03:42:46 26° WNW 03:42:46 26° WNW
IDEFIX/ARIANE 42P 4.0 03:39:57 10° NNW 03:43:46 21° WNW 03:44:59 19° W
IRS-P3 4.5 03:38:29 10° NNE 03:43:46 63° ESE 03:48:30 13° S
MOS 1-B Rocket 3.9 03:41:33 10° SSE 03:47:23 85° ENE 03:52:59 10° NNW
OAO 1 4.4 03:45:34 13° WNW 03:50:26 84° SSW 03:55:55 10° ESE
Cosmos 1943 3.3 03:48:21 19° SSW 03:52:28 80° ESE 03:58:11 10° NNE
CZ-3 R/B 4.1 03:01:19 10° WSW 03:52:39 76° S 04:03:50 10° E
RUBIN 8/PSLV 4.4 03:51:01 10° N 03:55:18 78° WNW 03:58:07 21° SSW
Cosmos 962 Rocket 4.4 03:49:53 10° N 03:56:01 84° W 04:02:07 10° S
Cosmos 1703 4.3 03:55:32 26° W 03:56:12 28° W 03:59:38 10° NNW
DNEPR-1 R/B 3.6 03:54:22 23° SSW 03:56:53 70° ESE 04:01:11 10° NNE
H-II Stage 2 3.0 03:46:04 10° W 03:58:28 48° SSW 04:01:38 10° SE
Meteor 1-21 Rocket 4.4 03:56:59 21° SSW 04:00:43 53° W 04:06:13 10° N
GPS 2-04 Rocket1 3.7 04:05:02 20° SSW 04:06:37 28° SSE 04:09:45 10° E
OAO 2 Rocket 3.9 04:03:47 21° SW 04:06:41 44° SSE 04:11:21 10° E
Helios 1B rocket 3.6 04:07:09 10° NNW 04:10:33 26° WNW 04:12:20 19° WSW
ARIANE 5 R/B 2.4 04:07:20 10° N 04:12:23 74° WNW 04:17:21 10° SSW
Meteor 1-29 2.7 04:10:05 10° N 04:13:18 67° WNW 04:15:45 16° SSW
SL-24 DEB 4.3 04:08:57 10° S 04:13:39 60° W 04:18:20 10° NNW
Cosmos 2058 Rocket 4.1 04:09:27 10° N 04:13:41 48° E 04:17:53 10° SSE
Cosmos 2297 3.8 04:08:28 10° NNW 04:14:03 55° WSW 04:19:37 10° S
Cosmos 1408 2.7 04:13:13 10° S 04:16:51 77° E 04:20:30 10° N
CZ-2C R/B 2.7 04:13:34 10° N 04:18:32 51° WNW 04:23:02 12° SSW
Cosmos 2056 Rocket 3.7 04:13:45 10° S 04:18:49 72° ESE 04:24:01 10° NNE
Cosmos 1484 Rocket 3.2 04:17:19 10° NNE 04:21:08 62° E 04:24:59 10° S
NOSS 3-3 (A) 4.1 04:19:13 15° SW 04:23:33 51° NW 04:29:30 10° NNE
NOSS 3-3 (C) 4.1 04:19:18 15° SW 04:23:39 52° NW 04:29:36 10° NNE
Cosmos 2251 Rocket 3.5 04:18:34 10° NNW 04:23:49 79° WSW 04:29:06 10° S
SeaSat 1 3.0 04:20:47 10° N 04:25:27 44° WNW 04:29:41 12° SW
METEOR-M 4.1 04:21:27 10° N 04:26:47 74° WNW 04:32:06 10° SSW
Cosmos 2341 Rocket 4.2 04:20:41 10° NNW 04:26:52 54° W 04:33:03 10° SSW
Lacrosse 4 Rocket 3.5 04:24:04 10° SSE 04:27:41 26° ESE 04:31:15 10° NE
Lacrosse 5 4.1 04:25:36 10° WNW 04:28:23 14° NW 04:31:09 10° N
IKONOS-2 4.4 04:27:54 10° S 04:32:05 81° WSW 04:36:19 10° NNW
Cosmos 2228 4.3 04:29:29 10° NW 04:32:53 22° W 04:36:14 10° SW
YAOGAN 6 3.8 04:30:12 10° NNE 04:33:37 42° E 04:37:03 10° S
Cosmos 1943 Rocket 3.2 04:32:13 10° NW 04:36:44 25° WSW 04:41:12 10° SSW
Cosmos 2366 rocket 4.0 04:32:15 10° NNW 04:38:19 65° W 04:44:26 10° S
Spot 4 Rocket 4.0 04:34:01 10° N 04:39:10 83° WNW 04:44:18 10° SSW
Okean 1-7 Rocket 3.6 04:36:51 10° S 04:41:18 81° W 04:45:44 10° N
Cosmos 1825 2.4 04:39:16 10° S 04:42:57 72° E 04:46:40 10° N
CZ-4C R/B 3.1 04:41:12 10° SSE 04:44:41 88° ENE 04:48:19 10° NNW
CZ-2C R/B 3.6 04:39:52 10° SSE 04:44:50 51° ENE 04:49:52 10° N
IUS-13 SRM-1 3.4 04:44:31 10° SSW 04:45:49 13° S 04:46:53 10° SE
Cosmos 1892 3.1 04:43:30 10° SSW 04:47:08 44° W 04:50:46 10° N
Cosmos 2369 Rocket 2.2 04:41:39 10° NNW 04:47:08 61° WSW 04:52:37 10° S
SL-8 Rocket 4.4 04:42:09 10° NNW 04:48:04 43° W 04:53:57 10° SSW
MINOTAUR 4 R/B 3.9 04:47:34 10° S 04:51:02 74° WSW 04:54:32 10° NNW
